| time (UTC) | temp C | wind direction | speed KPH | gust KPH | rain 1hr cm | rain 24hr cm | rain mn cm | humidity % | barometer mb |
| 20260505171533 | 6 | 0 | 1.6 | 6.4 | 0.00 | 0.00 | 0.00 | 83 | 1017.7 |
| 20260505171403 | 6 | 0 | 1.6 | 6.4 | 0.00 | 0.00 | 0.00 | 83 | 1017.7 |
| 20260505170756 | 6 | 0 | 3.2 | 6.4 | 0.00 | 0.00 | 0.00 | 83 | 1017.8 |
| 20260505170524 | 6 | 0 | 3.2 | 6.4 | 0.00 | 0.00 | 0.00 | 83 | 1017.8 |
| 20260505170353 | 6 | 0 | 3.2 | 6.4 | 0.00 | 0.00 | 0.00 | 83 | 1017.8 |
| 20260505170008 | 6 | 0 | 3.2 | 6.4 | 0.00 | 0.00 | 0.00 | 83 | 1017.9 |
| 20260505165851 | 6 | 0 | 3.2 | 6.4 | 0.00 | 0.00 | 0.00 | 83 | 1017.9 |
| 20260505165248 | 6 | 0 | 1.6 | 4.8 | 0.00 | 0.00 | 0.00 | 83 | 1017.8 |
| 20260505164728 | 6 | 0 | 1.6 | 6.4 | 0.00 | 0.00 | 0.00 | 83 | 1017.8 |
| 20260505164227 | 6 | 0 | 3.2 | 6.4 | 0.00 | 0.00 | 0.00 | 83 | 1017.9 |
| 20260505163727 | 6 | 0 | 3.2 | 6.4 | 0.00 | 0.00 | 0.00 | 84 | 1017.8 |
| 20260505163236 | 6 | 0 | 3.2 | 6.4 | 0.00 | 0.00 | 0.00 | 84 | 1017.7 |
| 20260505162725 | 6 | 0 | 3.2 | 9.7 | 0.00 | 0.00 | 0.00 | 84 | 1017.6 |
| 20260505162224 | 6 | 0 | 3.2 | 9.7 | 0.00 | 0.00 | 0.00 | 84 | 1017.6 |
| 20260505161918 | 6 | 0 | 4.8 | 9.7 | 0.00 | 0.00 | 0.00 | 84 | 1017.5 |
| 20260505161802 | 6 | 0 | 4.8 | 9.7 | 0.00 | 0.00 | 0.00 | 84 | 1017.5 |
| 20260505161138 | 6 | 0 | 4.8 | 12.9 | 0.00 | 0.00 | 0.00 | 85 | 1017.4 |
| 20260505160614 | 6 | 0 | 6.4 | 14.5 | 0.00 | 0.00 | 0.00 | 85 | 1017.2 |
| 20260505160115 | 6 | 0 | 4.8 | 14.5 | 0.00 | 0.00 | 0.00 | 85 | 1017.1 |
| 20260505152941 | 6 | 0 | 4.8 | 14.5 | 0.00 | 0.00 | 0.00 | 87 | 1017.2 |
| 20260505152423 | 6 | 0 | 4.8 | 14.5 | 0.00 | 0.00 | 0.00 | 87 | 1017.2 |
| 20260505151923 | 5 | 0 | 4.8 | 14.5 | 0.00 | 0.00 | 0.00 | 87 | 1017.1 |
| 20260505151404 | 5 | 0 | 6.4 | 17.7 | 0.00 | 0.00 | 0.00 | 87 | 1017.0 |
| 20260505150902 | 5 | 0 | 8.0 | 17.7 | 0.00 | 0.00 | 0.00 | 87 | 1017.0 |
| 20260505150400 | 5 | 0 | 6.4 | 17.7 | 0.00 | 0.00 | 0.00 | 87 | 1017.0 |
| 20260505140614 | 5 | 0 | 6.4 | 17.7 | 0.00 | 0.00 | 0.00 | 87 | 1016.8 |
| 20260505124747 | 5 | 0 | 9.7 | 20.9 | 0.00 | 0.00 | 0.00 | 85 | 1015.5 |
| 20260505124242 | 5 | 0 | 6.4 | 16.1 | 0.00 | 0.00 | 0.00 | 87 | 1015.4 |
| 20260505124008 | 5 | 0 | 4.8 | 16.1 | 0.00 | 0.00 | 0.00 | 89 | 1015.4 |
| 20260505123845 | 5 | 0 | 4.8 | 16.1 | 0.00 | 0.00 | 0.00 | 89 | 1015.4 |
| 20260505123241 | 6 | 0 | 1.6 | 16.1 | 0.00 | 0.00 | 0.00 | 89 | 1015.4 |
| 20260505122958 | 6 | 0 | 1.6 | 4.8 | 0.00 | 0.00 | 0.00 | 89 | 1015.3 |
| 20260505122843 | 6 | 0 | 1.6 | 4.8 | 0.00 | 0.00 | 0.00 | 89 | 1015.3 |
| 20260505122523 | 6 | 0 | 0.0 | 1.6 | 0.00 | 0.00 | 0.00 | 88 | 1015.3 |
| 20260505122358 | 6 | 0 | 0.0 | 1.6 | 0.00 | 0.00 | 0.00 | 88 | 1015.3 |
| 20260505121732 | 6 | 0 | 0.0 | 3.2 | 0.00 | 0.00 | 0.00 | 88 | 1015.2 |
| 20260505121230 | 6 | 0 | 0.0 | 4.8 | 0.00 | 0.00 | 0.00 | 88 | 1015.0 |
| 20260505120727 | 6 | 0 | 0.0 | 4.8 | 0.00 | 0.00 | 0.00 | 88 | 1015.0 |
| 20260505120227 | 6 | 0 | 0.0 | 4.8 | 0.00 | 0.00 | 0.00 | 88 | 1014.8 |
| 20260505115656 | 6 | 0 | 1.6 | 6.4 | 0.00 | 0.00 | 0.00 | 87 | 1014.7 |
| 20260505115131 | 6 | 0 | 1.6 | 6.4 | 0.00 | 0.00 | 0.00 | 87 | 1014.5 |
| 20260505115122 | 6 | 0 | 3.2 | 8.0 | 0.00 | 0.00 | 0.00 | 87 | 1014.4 |
| 20260505114735 | 6 | 0 | 3.2 | 8.0 | 0.00 | 0.00 | 0.00 | 87 | 1014.4 |
| 20260505114354 | 6 | 0 | 3.2 | 12.9 | 0.00 | 0.00 | 0.00 | 86 | 1014.3 |
| 20260505114227 | 6 | 0 | 3.2 | 12.9 | 0.00 | 0.00 | 0.00 | 86 | 1014.3 |
| 20260505113841 | 6 | 0 | 4.8 | 12.9 | 0.00 | 0.00 | 0.00 | 86 | 1014.2 |
| 20260505113724 | 6 | 0 | 4.8 | 12.9 | 0.00 | 0.00 | 0.00 | 86 | 1014.2 |
| 20260505113053 | 6 | 0 | 6.4 | 12.9 | 0.00 | 0.00 | 0.00 | 86 | 1013.9 |
| 20260505112550 | 6 | 0 | 6.4 | 19.3 | 0.00 | 0.00 | 0.00 | 85 | 1013.9 |
| 20260505112022 | 6 | 0 | 8.0 | 19.3 | 0.00 | 0.00 | 0.00 | 85 | 1013.8 |
| 20260505111518 | 6 | 0 | 8.0 | 17.7 | 0.00 | 0.00 | 0.00 | 86 | 1013.7 |
| 20260505111007 | 6 | 0 | 8.0 | 24.1 | 0.00 | 0.00 | 0.00 | 87 | 1013.5 |
| 20260505110730 | 6 | 0 | 8.0 | 24.1 | 0.00 | 0.00 | 0.00 | 88 | 1013.3 |
| 20260505110615 | 6 | 0 | 8.0 | 24.1 | 0.00 | 0.00 | 0.00 | 88 | 1013.3 |
| 20260505101719 | 6 | 0 | 8.0 | 19.3 | 0.00 | 0.00 | 0.00 | 89 | 1013.1 |
| 20260505101415 | 6 | 0 | 8.0 | 20.9 | 0.00 | 0.00 | 0.00 | 88 | 1013.1 |
| 20260505101257 | 6 | 0 | 8.0 | 20.9 | 0.00 | 0.00 | 0.00 | 88 | 1013.1 |
| 20260505100650 | 6 | 0 | 8.0 | 20.9 | 0.00 | 0.00 | 0.00 | 88 | 1013.1 |
| 20260505100346 | 6 | 0 | 8.0 | 20.9 | 0.00 | 0.00 | 0.00 | 88 | 1013.1 |
| 20260505100230 | 6 | 0 | 8.0 | 20.9 | 0.00 | 0.00 | 0.00 | 88 | 1013.1 |
| 20260505095621 | 6 | 0 | 8.0 | 17.7 | 0.00 | 0.00 | 0.00 | 88 | 1013.3 |
| 20260505095123 | 6 | 0 | 8.0 | 20.9 | 0.00 | 0.00 | 0.00 | 87 | 1013.3 |
| 20260505094618 | 6 | 0 | 8.0 | 20.9 | 0.00 | 0.00 | 0.00 | 87 | 1013.2 |
| 20260505094115 | 6 | 0 | 9.7 | 20.9 | 0.00 | 0.00 | 0.00 | 86 | 1013.3 |
| 20260505093612 | 6 | 0 | 11.3 | 20.9 | 0.00 | 0.00 | 0.00 | 86 | 1013.2 |
| 20260505093049 | 6 | 0 | 11.3 | 20.9 | 0.00 | 0.00 | 0.00 | 85 | 1013.2 |
| 20260505092548 | 6 | 0 | 11.3 | 20.9 | 0.00 | 0.00 | 0.00 | 85 | 1013.2 |
| 20260505092022 | 6 | 0 | 9.7 | 22.5 | 0.00 | 0.00 | 0.00 | 84 | 1013.4 |
| 20260505091521 | 6 | 0 | 9.7 | 22.5 | 0.00 | 0.00 | 0.00 | 84 | 1013.2 |
| 20260505091018 | 6 | 0 | 11.3 | 22.5 | 0.00 | 0.00 | 0.00 | 84 | 1013.2 |
| 20260505090451 | 6 | 0 | 11.3 | 20.9 | 0.00 | 0.00 | 0.00 | 83 | 1013.3 |
| 20260505085927 | 6 | 0 | 9.7 | 19.3 | 0.00 | 0.00 | 0.00 | 83 | 1013.4 |
| 20260505085423 | 6 | 0 | 9.7 | 17.7 | 0.00 | 0.00 | 0.00 | 82 | 1013.4 |
| 20260505085139 | 6 | 0 | 9.7 | 19.3 | 0.00 | 0.00 | 0.00 | 82 | 1013.3 |
| 20260505085025 | 6 | 0 | 9.7 | 19.3 | 0.00 | 0.00 | 0.00 | 82 | 1013.3 |
| 20260505084416 | 6 | 0 | 9.7 | 24.1 | 0.00 | 0.00 | 0.00 | 82 | 1013.4 |
| 20260505083852 | 6 | 0 | 8.0 | 17.7 | 0.00 | 0.00 | 0.00 | 81 | 1013.5 |
| 20260505083606 | 7 | 0 | 8.0 | 20.9 | 0.00 | 0.00 | 0.00 | 81 | 1013.5 |
| 20260505083441 | 7 | 0 | 8.0 | 20.9 | 0.00 | 0.00 | 0.00 | 81 | 1013.5 |
| 20260505083259 | 7 | 0 | 8.0 | 20.9 | 0.00 | 0.00 | 0.00 | 82 | 1013.5 |
| 20260505082912 | 7 | 0 | 8.0 | 20.9 | 0.00 | 0.00 | 0.00 | 82 | 1013.5 |
| 20260505082250 | 7 | 0 | 8.0 | 20.9 | 0.00 | 0.00 | 0.00 | 83 | 1013.5 |
| 20260505081724 | 7 | 0 | 8.0 | 19.3 | 0.00 | 0.00 | 0.00 | 84 | 1013.4 |
| 20260505081224 | 7 | 0 | 9.7 | 20.9 | 0.00 | 0.00 | 0.00 | 85 | 1013.2 |
| 20260505080723 | 7 | 0 | 9.7 | 22.5 | 0.00 | 0.00 | 0.00 | 85 | 1013.1 |
| 20260505080222 | 7 | 0 | 11.3 | 22.5 | 0.00 | 0.00 | 0.00 | 85 | 1013.0 |
| 20260505075705 | 7 | 0 | 11.3 | 29.0 | 0.00 | 0.00 | 0.00 | 85 | 1012.7 |
| 20260505075214 | 7 | 0 | 11.3 | 29.0 | 0.00 | 0.00 | 0.00 | 85 | 1012.6 |
| 20260505074704 | 7 | 0 | 12.9 | 25.7 | 0.00 | 0.00 | 0.00 | 84 | 1012.6 |
| 20260505074204 | 7 | 0 | 12.9 | 25.7 | 0.00 | 0.00 | 0.00 | 84 | 1012.6 |
| 20260505073642 | 7 | 0 | 12.9 | 30.6 | 0.00 | 0.00 | 0.00 | 83 | 1012.5 |
| 20260505073143 | 7 | 0 | 12.9 | 30.6 | 0.00 | 0.00 | 0.00 | 81 | 1012.6 |
| 20260505072637 | 7 | 0 | 12.9 | 25.7 | 0.00 | 0.00 | 0.00 | 80 | 1012.6 |
| 20260505072133 | 7 | 0 | 14.5 | 25.7 | 0.00 | 0.00 | 0.00 | 79 | 1012.7 |
| 20260505071633 | 8 | 0 | 17.7 | 35.4 | 0.00 | 0.00 | 0.00 | 78 | 1012.7 |
| 20260505071116 | 8 | 0 | 19.3 | 46.7 | 0.00 | 0.00 | 0.00 | 76 | 1012.7 |
| 20260505070620 | 8 | 0 | 19.3 | 46.7 | 0.00 | 0.00 | 0.00 | 74 | 1012.8 |
| 20260505065556 | 8 | 0 | 16.1 | 30.6 | 0.00 | 0.00 | 0.00 | 76 | 1012.6 |
| 20260505065057 | 8 | 0 | 14.5 | 25.7 | 0.00 | 0.00 | 0.00 | 76 | 1012.6 |
| 20260505064745 | 9 | 0 | 14.5 | 27.4 | 0.00 | 0.00 | 0.00 | 75 | 1012.7 |
| 20260505064628 | 9 | 0 | 14.5 | 27.4 | 0.00 | 0.00 | 0.00 | 75 | 1012.7 |
| 20260505064014 | 9 | 0 | 14.5 | 27.4 | 0.00 | 0.00 | 0.00 | 72 | 1012.5 |
| 20260505063720 | 10 | 0 | 14.5 | 30.6 | 0.00 | 0.00 | 0.00 | 70 | 1012.5 |
| 20260505063600 | 10 | 0 | 14.5 | 30.6 | 0.00 | 0.00 | 0.00 | 70 | 1012.5 |
| 20260505062955 | 10 | 0 | 12.9 | 30.6 | 0.00 | 0.00 | 0.00 | 68 | 1012.6 |
| 20260505062725 | 10 | 0 | 11.3 | 25.7 | 0.00 | 0.00 | 0.00 | 66 | 1012.6 |
| 20260505062602 | 10 | 0 | 11.3 | 25.7 | 0.00 | 0.00 | 0.00 | 66 | 1012.6 |
| 20260505061954 | 10 | 0 | 12.9 | 25.7 | 0.00 | 0.00 | 0.00 | 64 | 1012.5 |
| 20260505061427 | 11 | 0 | 12.9 | 29.0 | 0.00 | 0.00 | 0.00 | 61 | 1012.5 |
| 20260505060904 | 11 | 0 | 12.9 | 29.0 | 0.00 | 0.00 | 0.00 | 59 | 1012.2 |
| 20260505060351 | 11 | 0 | 12.9 | 33.8 | 0.00 | 0.00 | 0.00 | 58 | 1011.7 |
| 20260505060035 | 11 | 0 | 14.5 | 33.8 | 0.00 | 0.00 | 0.00 | 57 | 1011.4 |
| 20260505055921 | 11 | 0 | 14.5 | 33.8 | 0.00 | 0.00 | 0.00 | 57 | 1011.4 |
| 20260505055255 | 11 | 0 | 14.5 | 30.6 | 0.00 | 0.00 | 0.00 | 56 | 1011.3 |
| 20260505054753 | 11 | 0 | 17.7 | 37.0 | 0.00 | 0.00 | 0.00 | 55 | 1011.0 |
| 20260505054241 | 11 | 0 | 17.7 | 38.6 | 0.00 | 0.00 | 0.00 | 55 | 1010.8 |
| 20260505053742 | 11 | 0 | 19.3 | 41.8 | 0.00 | 0.00 | 0.00 | 54 | 1010.4 |
| 20260505053458 | 12 | 0 | 19.3 | 38.6 | 0.00 | 0.00 | 0.00 | 54 | 1010.5 |
| 20260505053341 | 12 | 0 | 19.3 | 38.6 | 0.00 | 0.00 | 0.00 | 54 | 1010.5 |
| 20260505052729 | 12 | 0 | 17.7 | 38.6 | 0.00 | 0.00 | 0.00 | 54 | 1010.5 |
| 20260505052228 | 12 | 0 | 16.1 | 38.6 | 0.00 | 0.00 | 0.00 | 53 | 1010.5 |
| 20260505051742 | 12 | 0 | 16.1 | 33.8 | 0.00 | 0.00 | 0.00 | 53 | 1010.8 |
| 20260505051225 | 12 | 0 | 14.5 | 32.2 | 0.00 | 0.00 | 0.00 | 52 | 1010.6 |
| 20260505050658 | 12 | 0 | 14.5 | 32.2 | 0.00 | 0.00 | 0.00 | 52 | 1010.9 |
| 20260505050156 | 12 | 0 | 14.5 | 30.6 | 0.00 | 0.00 | 0.00 | 51 | 1010.8 |
| 20260505041418 | 14 | 0 | 19.3 | 37.0 | 0.00 | 0.00 | 0.00 | 46 | 1010.1 |
| 20260505040916 | 14 | 0 | 16.1 | 37.0 | 0.00 | 0.00 | 0.00 | 45 | 1010.1 |
| 20260505040417 | 14 | 0 | 11.3 | 29.0 | 0.00 | 0.00 | 0.00 | 44 | 1010.0 |
| 20260505035850 | 15 | 0 | 11.3 | 27.4 | 0.00 | 0.00 | 0.00 | 44 | 1010.0 |
| 20260505035348 | 15 | 0 | 12.9 | 27.4 | 0.00 | 0.00 | 0.00 | 43 | 1010.0 |
| 20260505034846 | 15 | 0 | 14.5 | 32.2 | 0.00 | 0.00 | 0.00 | 43 | 1009.9 |
| 20260505034319 | 15 | 0 | 17.7 | 32.2 | 0.00 | 0.00 | 0.00 | 43 | 1009.7 |
| 20260505033813 | 15 | 0 | 16.1 | 33.8 | 0.00 | 0.00 | 0.00 | 42 | 1009.5 |
| 20260505033530 | 15 | 0 | 16.1 | 38.6 | 0.00 | 0.00 | 0.00 | 42 | 1009.7 |
| 20260505033413 | 15 | 0 | 16.1 | 38.6 | 0.00 | 0.00 | 0.00 | 42 | 1009.7 |
| 20260505032809 | 15 | 0 | 17.7 | 38.6 | 0.00 | 0.00 | 0.00 | 41 | 1009.8 |
| 20260505032312 | 15 | 0 | 16.1 | 53.1 | 0.00 | 0.00 | 0.00 | 41 | 1009.7 |
| 20260505031744 | 16 | 0 | 16.1 | 53.1 | 0.00 | 0.00 | 0.00 | 41 | 1009.5 |
| 20260505031240 | 16 | 0 | 17.7 | 40.2 | 0.00 | 0.00 | 0.00 | 41 | 1009.5 |
| 20260505030720 | 16 | 0 | 19.3 | 40.2 | 0.00 | 0.00 | 0.00 | 40 | 1009.5 |
| 20260505030211 | 16 | 0 | 19.3 | 35.4 | 0.00 | 0.00 | 0.00 | 40 | 1009.3 |
| 20260505025651 | 16 | 0 | 17.7 | 38.6 | 0.00 | 0.00 | 0.00 | 39 | 1009.2 |
| 20260505025157 | 16 | 0 | 14.5 | 38.6 | 0.00 | 0.00 | 0.00 | 39 | 1009.1 |
| 20260505024642 | 16 | 0 | 14.5 | 35.4 | 0.00 | 0.00 | 0.00 | 39 | 1008.9 |
| 20260505024138 | 16 | 0 | 17.7 | 35.4 | 0.00 | 0.00 | 0.00 | 38 | 1008.8 |
| 20260505023635 | 16 | 0 | 17.7 | 33.8 | 0.00 | 0.00 | 0.00 | 38 | 1008.7 |
| 20260505023131 | 17 | 0 | 16.1 | 33.8 | 0.00 | 0.00 | 0.00 | 38 | 1008.6 |
| 20260505022626 | 17 | 0 | 17.7 | 40.2 | 0.00 | 0.00 | 0.00 | 37 | 1008.5 |
| 20260505022107 | 17 | 0 | 17.7 | 40.2 | 0.00 | 0.00 | 0.00 | 37 | 1008.2 |
| 20260505021556 | 17 | 0 | 17.7 | 35.4 | 0.00 | 0.00 | 0.00 | 37 | 1008.2 |
| 20260505021031 | 17 | 0 | 17.7 | 35.4 | 0.00 | 0.00 | 0.00 | 37 | 1008.1 |
| 20260505020528 | 17 | 0 | 17.7 | 33.8 | 0.00 | 0.00 | 0.00 | 38 | 1007.7 |
| 20260505020000 | 17 | 0 | 19.3 | 38.6 | 0.00 | 0.00 | 0.00 | 37 | 1007.8 |
| 20260505015741 | 18 | 0 | 17.7 | 38.6 | 0.00 | 0.00 | 0.00 | 37 | 1007.6 |
| 20260505015138 | 18 | 0 | 19.3 | 40.2 | 0.00 | 0.00 | 0.00 | 37 | 1007.5 |
| 20260505015018 | 18 | 0 | 19.3 | 40.2 | 0.00 | 0.00 | 0.00 | 37 | 1007.5 |
| 20260505014403 | 18 | 0 | 19.3 | 40.2 | 0.00 | 0.00 | 0.00 | 37 | 1007.4 |
| 20260505013333 | 18 | 0 | 17.7 | 41.8 | 0.00 | 0.00 | 0.00 | 37 | 1007.2 |
| 20260505012830 | 19 | 0 | 19.3 | 41.8 | 0.00 | 0.00 | 0.00 | 37 | 1006.9 |
| 20260505012327 | 19 | 0 | 20.9 | 43.5 | 0.00 | 0.00 | 0.00 | 36 | 1006.9 |
| 20260505011824 | 19 | 0 | 22.5 | 43.5 | 0.00 | 0.00 | 0.00 | 36 | 1006.8 |
| 20260505011315 | 20 | 0 | 19.3 | 41.8 | 0.00 | 0.00 | 0.00 | 36 | 1006.5 |
| 20260505010814 | 20 | 0 | 17.7 | 41.8 | 0.00 | 0.00 | 0.00 | 37 | 1006.6 |
| 20260505010546 | 20 | 0 | 17.7 | 41.8 | 0.00 | 0.00 | 0.00 | 37 | 1006.5 |
| 20260505010415 | 20 | 0 | 17.7 | 41.8 | 0.00 | 0.00 | 0.00 | 37 | 1006.5 |
| 20260505005808 | 20 | 0 | 19.3 | 41.8 | 0.00 | 0.00 | 0.00 | 36 | 1006.6 |
| 20260505005304 | 20 | 0 | 19.3 | 41.8 | 0.00 | 0.00 | 0.00 | 36 | 1006.4 |
| 20260505004740 | 20 | 0 | 20.9 | 41.8 | 0.00 | 0.00 | 0.00 | 35 | 1006.4 |
| 20260505004235 | 21 | 0 | 17.7 | 38.6 | 0.00 | 0.00 | 0.00 | 35 | 1006.5 |
| 20260505003731 | 21 | 0 | 16.1 | 35.4 | 0.00 | 0.00 | 0.00 | 34 | 1006.4 |
| 20260505003227 | 21 | 0 | 16.1 | 32.2 | 0.00 | 0.00 | 0.00 | 34 | 1006.4 |
| 20260505002658 | 21 | 0 | 16.1 | 38.6 | 0.00 | 0.00 | 0.00 | 33 | 1006.7 |
| 20260505002128 | 22 | 0 | 12.9 | 38.6 | 0.00 | 0.00 | 0.00 | 32 | 1006.6 |
| 20260505001602 | 22 | 0 | 14.5 | 40.2 | 0.00 | 0.00 | 0.00 | 31 | 1006.6 |
| 20260505001036 | 22 | 0 | 19.3 | 40.2 | 0.00 | 0.00 | 0.00 | 30 | 1006.0 |
| 20260505000542 | 22 | 0 | 19.3 | 41.8 | 0.00 | 0.00 | 0.00 | 30 | 1005.8 |
| 20260505000014 | 23 | 0 | 16.1 | 41.8 | 0.00 | 0.00 | 0.00 | 29 | 1005.7 |
| 20260504235446 | 23 | 0 | 12.9 | 37.0 | 0.00 | 0.00 | 0.00 | 28 | 1005.5 |
| 20260504234919 | 25 | 0 | 6.4 | 29.0 | 0.00 | 0.00 | 0.00 | 23 | 1005.5 |
| 20260504234405 | 25 | 0 | 4.8 | 14.5 | 0.00 | 0.00 | 0.00 | 20 | 1005.0 |
| 20260504233906 | 25 | 0 | 6.4 | 14.5 | 0.00 | 0.00 | 0.00 | 20 | 1004.7 |
| 20260504233356 | 26 | 0 | 4.8 | 12.9 | 0.00 | 0.00 | 0.00 | 19 | 1004.7 |
| 20260504232835 | 26 | 0 | 3.2 | 9.7 | 0.00 | 0.00 | 0.00 | 19 | 1004.7 |
| 20260504232334 | 26 | 0 | 1.6 | 4.8 | 0.00 | 0.00 | 0.00 | 19 | 1004.6 |
| 20260504232035 | 26 | 0 | 3.2 | 6.4 | 0.00 | 0.00 | 0.00 | 19 | 1004.6 |
| 20260504231916 | 26 | 0 | 3.2 | 6.4 | 0.00 | 0.00 | 0.00 | 19 | 1004.6 |
| 20260504231246 | 26 | 0 | 1.6 | 6.4 | 0.00 | 0.00 | 0.00 | 18 | 1004.6 |
| 20260504230744 | 26 | 0 | 1.6 | 6.4 | 0.00 | 0.00 | 0.00 | 19 | 1004.5 |
| 20260504230534 | 26 | 0 | 3.2 | 9.7 | 0.00 | 0.00 | 0.00 | 19 | 1004.4 |
| 20260504230241 | 26 | 0 | 3.2 | 9.7 | 0.00 | 0.00 | 0.00 | 19 | 1004.4 |
| 20260504230222 | 26 | 0 | 3.2 | 9.7 | 0.00 | 0.00 | 0.00 | 19 | 1004.4 |
| 20260504225251 | 26 | 0 | 1.6 | 8.0 | 0.00 | 0.00 | 0.00 | 18 | 1004.4 |
| 20260504224730 | 26 | 0 | 1.6 | 12.9 | 0.00 | 0.00 | 0.00 | 18 | 1004.5 |
| 20260504224225 | 26 | 0 | 3.2 | 12.9 | 0.00 | 0.00 | 0.00 | 18 | 1004.5 |
| 20260504223725 | 26 | 0 | 4.8 | 12.9 | 0.00 | 0.00 | 0.00 | 19 | 1004.7 |
| 20260504223222 | 26 | 0 | 6.4 | 12.9 | 0.00 | 0.00 | 0.00 | 18 | 1004.7 |
| 20260504222719 | 26 | 0 | 6.4 | 20.9 | 0.00 | 0.00 | 0.00 | 19 | 1004.8 |
| 20260504222202 | 26 | 0 | 8.0 | 20.9 | 0.00 | 0.00 | 0.00 | 19 | 1005.0 |
| 20260504221700 | 26 | 0 | 8.0 | 19.3 | 0.00 | 0.00 | 0.00 | 19 | 1005.0 |
| 20260504221202 | 26 | 0 | 8.0 | 16.1 | 0.00 | 0.00 | 0.00 | 19 | 1004.8 |
| 20260504220956 | 26 | 0 | 6.4 | 16.1 | 0.00 | 0.00 | 0.00 | 19 | 1005.0 |
| 20260504220657 | 26 | 0 | 6.4 | 16.1 | 0.00 | 0.00 | 0.00 | 19 | 1004.9 |
| 20260504220625 | 26 | 0 | 6.4 | 16.1 | 0.00 | 0.00 | 0.00 | 19 | 1005.0 |
| 20260504215634 | 26 | 0 | 6.4 | 16.1 | 0.00 | 0.00 | 0.00 | 19 | 1005.2 |
| 20260504215108 | 26 | 0 | 6.4 | 16.1 | 0.00 | 0.00 | 0.00 | 18 | 1005.2 |
| 20260504214610 | 26 | 0 | 8.0 | 17.7 | 0.00 | 0.00 | 0.00 | 18 | 1005.2 |
| 20260504214102 | 26 | 0 | 8.0 | 19.3 | 0.00 | 0.00 | 0.00 | 19 | 1005.2 |
| 20260504213602 | 26 | 0 | 6.4 | 14.5 | 0.00 | 0.00 | 0.00 | 19 | 1005.2 |
| 20260504213041 | 27 | 0 | 8.0 | 22.5 | 0.00 | 0.00 | 0.00 | 18 | 1005.2 |
| 20260504212524 | 27 | 0 | 8.0 | 22.5 | 0.00 | 0.00 | 0.00 | 18 | 1004.9 |
| 20260504212001 | 28 | 0 | 4.8 | 22.5 | 0.00 | 0.00 | 0.00 | 17 | 1004.9 |
| 20260504211721 | 29 | 0 | 4.8 | 17.7 | 0.00 | 0.00 | 0.00 | 16 | 1005.0 |
| 20260504211600 | 29 | 0 | 4.8 | 17.7 | 0.00 | 0.00 | 0.00 | 16 | 1005.0 |
| 20260504210948 | 29 | 0 | 3.2 | 17.7 | 0.00 | 0.00 | 0.00 | 15 | 1005.2 |
| 20260504210447 | 30 | 0 | 1.6 | 8.0 | 0.00 | 0.00 | 0.00 | 14 | 1005.2 |
| 20260504210245 | 30 | 0 | 1.6 | 4.8 | 0.00 | 0.00 | 0.00 | 13 | 1005.2 |
| 20260504205413 | 30 | 0 | 1.6 | 3.2 | 0.00 | 0.00 | 0.00 | 13 | 1005.2 |
| 20260504204911 | 30 | 0 | 1.6 | 6.4 | 0.00 | 0.00 | 0.00 | 13 | 1005.2 |
| 20260504204628 | 30 | 0 | 1.6 | 6.4 | 0.00 | 0.00 | 0.00 | 15 | 1005.3 |
| 20260504204512 | 30 | 0 | 1.6 | 6.4 | 0.00 | 0.00 | 0.00 | 15 | 1005.3 |
| 20260504204108 | 31 | 0 | 4.8 | 16.1 | 0.00 | 0.00 | 0.00 | 13 | 1005.3 |
| 20260504203952 | 31 | 0 | 4.8 | 16.1 | 0.00 | 0.00 | 0.00 | 13 | 1005.3 |
| 20260504203349 | 31 | 0 | 4.8 | 16.1 | 0.00 | 0.00 | 0.00 | 13 | 1005.3 |
| 20260504202846 | 31 | 292 | 3.2 | 9.7 | 0.00 | 0.00 | 0.00 | 15 | 1005.3 |
| 20260504202710 | 30 | 335 | 3.2 | 17.7 | 0.00 | 0.00 | 0.00 | 14 | 1005.4 |
| 20260504202639 | 30 | 335 | 3.2 | 17.7 | 0.00 | 0.00 | 0.00 | 14 | 1005.4 |
| 20260504201847 | 31 | 0 | 3.2 | 17.7 | 0.00 | 0.00 | 0.00 | 14 | 1005.4 |
| 20260504201320 | 31 | 304 | 1.6 | 8.0 | 0.00 | 0.00 | 0.00 | 14 | 1005.5 |
| 20260504200821 | 30 | 248 | 1.6 | 8.0 | 0.00 | 0.00 | 0.00 | 15 | 1005.6 |
| 20260504200319 | 30 | 155 | 3.2 | 6.4 | 0.00 | 0.00 | 0.00 | 15 | 1005.7 |
| 20260504195817 | 30 | 144 | 4.8 | 16.1 | 0.00 | 0.00 | 0.00 | 16 | 1005.8 |
| 20260504195728 | 29 | 0 | 6.4 | 16.1 | 0.00 | 0.00 | 0.00 | 16 | 1005.8 |
| 20260504195354 | 29 | 0 | 6.4 | 16.1 | 0.00 | 0.00 | 0.00 | 16 | 1005.8 |
| 20260504194726 | 29 | 0 | 6.4 | 17.7 | 0.00 | 0.00 | 0.00 | 17 | 1005.9 |
| 20260504194605 | 29 | 0 | 6.4 | 17.7 | 0.00 | 0.00 | 0.00 | 17 | 1006.0 |
| 20260504194518 | 29 | 0 | 6.4 | 17.7 | 0.00 | 0.00 | 0.00 | 17 | 1006.0 |
| 20260504193715 | 29 | 0 | 4.8 | 14.5 | 0.00 | 0.00 | 0.00 | 17 | 1006.1 |
| 20260504193149 | 30 | 0 | 6.4 | 25.7 | 0.00 | 0.00 | 0.00 | 16 | 1006.1 |
| 20260504192646 | 30 | 0 | 4.8 | 25.7 | 0.00 | 0.00 | 0.00 | 17 | 1006.3 |
| 20260504192143 | 30 | 0 | 3.2 | 8.0 | 0.00 | 0.00 | 0.00 | 16 | 1006.4 |
| 20260504191636 | 31 | 0 | 3.2 | 9.7 | 0.00 | 0.00 | 0.00 | 14 | 1006.4 |
| 20260504191133 | 31 | 57 | 3.2 | 9.7 | 0.00 | 0.00 | 0.00 | 15 | 1006.5 |
| 20260504190849 | 31 | 33 | 3.2 | 8.0 | 0.00 | 0.00 | 0.00 | 15 | 1006.6 |
| 20260504190734 | 31 | 33 | 3.2 | 8.0 | 0.00 | 0.00 | 0.00 | 15 | 1006.6 |
| 20260504190126 | 30 | 35 | 3.2 | 8.0 | 0.00 | 0.00 | 0.00 | 16 | 1006.7 |
| 20260504185616 | 30 | 344 | 1.6 | 6.4 | 0.00 | 0.00 | 0.00 | 17 | 1006.6 |
| 20260504185049 | 29 | 337 | 3.2 | 9.7 | 0.00 | 0.00 | 0.00 | 17 | 1006.6 |
| 20260504184547 | 28 | 35 | 4.8 | 9.7 | 0.00 | 0.00 | 0.00 | 17 | 1006.7 |
| 20260504184043 | 28 | 0 | 4.8 | 12.9 | 0.00 | 0.00 | 0.00 | 18 | 1006.7 |
| 20260504183540 | 28 | 46 | 4.8 | 12.9 | 0.00 | 0.00 | 0.00 | 17 | 1006.9 |
| 20260504183241 | 27 | 104 | 3.2 | 12.9 | 0.00 | 0.00 | 0.00 | 18 | 1006.9 |
| 20260504183123 | 27 | 104 | 3.2 | 12.9 | 0.00 | 0.00 | 0.00 | 18 | 1006.9 |
| 20260504182446 | 27 | 101 | 4.8 | 9.7 | 0.00 | 0.00 | 0.00 | 19 | 1007.0 |
| 20260504181920 | 26 | 0 | 6.4 | 12.9 | 0.00 | 0.00 | 0.00 | 19 | 1007.1 |
| 20260504181636 | 26 | 0 | 6.4 | 14.5 | 0.00 | 0.00 | 0.00 | 20 | 1007.1 |
| 20260504181512 | 26 | 0 | 6.4 | 14.5 | 0.00 | 0.00 | 0.00 | 20 | 1007.1 |
| 20260504180906 | 26 | 0 | 6.4 | 14.5 | 0.00 | 0.00 | 0.00 | 21 | 1007.2 |
| 20260504180402 | 26 | 0 | 4.8 | 12.9 | 0.00 | 0.00 | 0.00 | 21 | 1007.5 |
| 20260504175834 | 26 | 0 | 3.2 | 16.1 | 0.00 | 0.00 | 0.00 | 21 | 1007.5 |
| 20260504175307 | 25 | 0 | 6.4 | 16.1 | 0.00 | 0.00 | 0.00 | 21 | 1007.6 |
| 20260504174743 | 25 | 0 | 8.0 | 19.3 | 0.00 | 0.00 | 0.00 | 20 | 1007.6 |
| 20260504174451 | 25 | 0 | 8.0 | 19.3 | 0.00 | 0.00 | 0.00 | 21 | 1007.6 |
| 20260504174321 | 25 | 0 | 8.0 | 19.3 | 0.00 | 0.00 | 0.00 | 21 | 1007.6 |
| 20260504173709 | 25 | 0 | 8.0 | 17.7 | 0.00 | 0.00 | 0.00 | 21 | 1007.7 |
| 20260504173144 | 26 | 0 | 8.0 | 17.7 | 0.00 | 0.00 | 0.00 | 21 | 1007.8 |
| 20260504172642 | 26 | 0 | 6.4 | 16.1 | 0.00 | 0.00 | 0.00 | 22 | 1007.7 |
| 20260504172136 | 26 | 0 | 6.4 | 17.7 | 0.00 | 0.00 | 0.00 | 21 | 1007.8 |